SCP
0 0 0 0 0 0 0 0 0 0 0 0 0 0 0 0 0 0 0 0 0 0 0 0 0 0 0 0 0 0 0 0 0 0 0 0 0 0 0 0 0 0 0
0 0 0 0 0 0 0 0 0 0 0 0 0 0 0 0 0 0 0 0 0 0 0 0 0 0 0 0 0 0 0 0 0 0 0 0 0 0 0 0 0 0 0
0 0 0 0 0 0 0 0 0 0 0 0 0 0 0 0 0 0 0 0 0 0 0 0 0 0 0 0 0 0 0 0 0 0 0 0 0 0 0 0 0 0 0
0 0 0 0 0 0 0 0 0 0 0 0 0 0 0 0 0 0 0 0 0 0 0 0 0 0 0 0 0 0 0 0 0 0 0 0 0 0 0 0 0 0 0
0 0 0 0 0 0 0 0 0 0 0 0 0 0 0 0 0 0 0 0 0 0 0 0 0 0 0 0 0 0 0 0 0 0 0 0 0 0 0 0 0 0 0
0 0 0 0 0 0 0 0 0 0 0 0 0 0 0 0 0 0 0 0 0 0 0 0 0 0 0 0 0 0 0 0 0 0 0 0 0 0 0 0 0 0 0
0 -0 0 0 0 0 0 0 0 0 0 0 0 0 0 0 0 0 0 0 0 0 0 0 0 0 0 0 0 0 0 0 0 0 0 0 0 0 0 0 0 0 0
0 0 0 0 0 0 0 0 0 0 0 0 0 0 0 0 0 0 0 0 0 0 0 0 0 0 0 0 0 0 0 0 0 0 0 0 0 0 0 0 0 0 0
0 0 0 0 0 0 0 0 0 0 0 0 0 0 0 0 0 0 0 0 0 0 0 0 0 0 0 0 0 0 0 0 0 0 0 0 0 0 0 0 0 0 0
0 0 0 0 0 0 0 0 0 0 0 0 0 0 0 0 0 0 0 0 0 0 0 0 0 0 0 0 0 0 0 0 0 0 0 0 0 0 0 0 0 0 0
0 0 0 0 0 0 0 0 0 0 0 0 0 0 0 0 0 0 0 0 0 0 0 0 0 0 0 0 0 0 0 0 0 0 0 0 0 0 0 0 0 0 0
0 0 0 0 0 0 0 0 0 0 0 0 0 0 0 0 0 -0 0 0 0 0 0 0 0 0 0 0 0 0 0 0 0 0 0 0 0 0 0 0 0 0 0
0 0 0 0 0 0 0 0 0 0 0 0 0 0 0 -0 0 0 0 0 0 0 0 0 0 0 0 0 0 0 0 0 0 0 0 0 0 0 0 0 0 0 0
0 0 0 0 0 0 0 0 0 0 0 0 0 0 0 0 -0 0 0 0 0 0 0 0 0 0 0 0 0 0 0 0 0 0 0 0 0 0 0 0 0 0 0
0 0 0 0 0 0 0 0 0 0 0 -0 0 0 0 -0 -0 0 0 0 0 0 0 0 0 0 0 0 0 0 0 0 0 0 0 0 0 0 0 0 0 0 0
0 0 0 0 0 0 0 0 0 0 0 0 0 0 0 0 0 0 0 0 0 0 0 0 0 0 0 0 0 0 0 0 0 0 0 0 0 0 0 0 0 0 0
0 0 -0 -0 -0 -0 -0 -0 0 0 0 0 0 0 0 0 0 0 0 0 0 0 0 0 0 0 0 0 0 0 0 0 0 0 0 0 0 0 0 0 0 0 0
0 -0 -0 -0 -0 -0 -0 0 0 0 0 0 0 0 0 0 0 0 0 0 0 0 0 0 0 0 0 0 0 0 0 0 0 0 0 0 0 0 0 0 0 0 0
0 0 -0 -0 -0 -0 -0 0 0 0 0 0 0 0 0 0 0 0 0 0 0 0 0 0 0 0 0 0 0 0 0 0 0 0 0 0 0 0 0 0 0 0 0
0 0 0 0 0 0 0 0 0 0 0 0 0 0 0 0 0 0 0 0 0 0 0 0 0 0 0 0 0 0 0 0 0 0 0 0 0 0 0 0 0 0 0
0 0 0 0 0 0 0 0 0 0 0 0 0 0 0 0 0 0 0 0 0 0 0 0 0 0 0 0 0 0 0 0 0 0 0 0 0 0 0 0 0 0 0
0 0 0 0 0 0 0 0 0 0 0 0 0 0 0 0 0 0 0 0 0 0 0 0 0 0 0 0 0 0 0 0 0 0 0 0 0 0 0 0 0 0 0
0 0 0 0 0 0 0 0 0 0 0 0 0 0 0 0 0 0 0 0 0 0 0 0 0 0 0 0 0 0 0 0 0 0 0 0 0 0 0 0 0 0 0
0 0 0 0 0 0 0 0 0 0 0 0 0 0 0 0 0 0 0 0 0 0 0 0 0 0 0 0 0 0 0 0 0 0 0 0 0 0 0 0 0 0 0
0 0 0 0 0 0 0 0 0 0 0 0 0 0 0 0 0 0 0 0 0 0 0 0 0 0 0 0 0 0 0 0 0 0 0 0 0 0 0 0 0 0 0
0 0 0 0 0 0 0 0 0 0 0 0 0 0 0 0 0 0 0 0 0 0 0 0 0 0 0 0 0 0 0 0 0 0 0 0 0 0 0 0 0 0 0
Wind_Speed_500mb
78 87 94 93 88 86 88 100 117 112 127 129 127 124 119 112 103 93 88 83 74 71 70 67 59 58 53 41 47 39 31 29 23 23 24 26 30 32 36 41 44 45 40
78 75 83 89 95 90 91 106 122 122 127 128 131 130 122 114 104 92 90 80 77 83 79 62 66 56 45 43 34 32 32 25 25 24 25 27 30 33 39 43 44 45 42
61 80 91 90 81 83 102 109 119 121 129 127 132 135 120 113 103 96 93 87 84 78 64 67 59 49 45 37 40 35 28 27 25 24 27 28 33 36 41 43 44 44 45
35 53 84 81 80 107 106 102 111 112 110 116 128 125 119 113 103 98 92 82 79 69 51 46 48 41 32 37 35 28 27 24 23 26 30 35 39 40 44 46 47 46 50
21 42 60 81 97 97 98 106 102 98 110 116 128 124 120 113 105 96 85 81 69 52 50 50 43 35 38 34 29 27 24 23 25 28 35 39 42 44 47 49 51 51 55
49 59 77 87 92 87 98 94 85 89 91 111 118 119 111 103 92 81 78 69 53 56 56 46 40 42 37 32 28 24 25 25 26 31 37 42 43 45 47 50 54 56 63
55 76 83 81 83 87 84 83 86 61 97 111 110 107 98 85 76 69 58 56 55 51 40 44 42 37 34 30 25 25 26 26 27 32 38 41 45 44 50 53 54 56 60
50 67 75 77 85 86 85 80 84 90 103 106 101 93 83 75 66 61 58 51 48 42 40 36 35 34 31 26 26 26 24 26 27 34 39 43 48 47 51 52 53 56 58
39 53 63 69 76 81 81 79 78 89 92 96 92 82 75 69 66 63 52 48 50 40 37 37 35 32 27 27 27 24 26 23 27 33 40 45 52 50 48 49 50 52 59
38 42 52 64 73 74 76 77 77 82 85 78 77 74 64 71 60 48 50 43 38 38 35 34 34 29 29 28 27 25 26 22 30 34 40 44 46 44 47 46 45 51 53
41 48 54 62 64 66 65 64 82 87 84 79 73 66 58 53 54 46 37 34 32 31 32 33 29 30 30 30 29 27 26 30 33 40 40 41 40 43 47 49 50 53 56
43 52 55 55 56 61 70 77 78 81 77 73 64 59 56 49 38 36 33 31 32 32 29 29 31 31 31 31 32 31 33 37 42 47 46 43 43 44 48 53 59 60 58
53 55 56 59 66 71 76 75 75 70 69 68 65 59 49 42 36 32 30 29 25 23 25 28 31 32 33 37 36 39 41 45 51 53 52 49 44 45 53 59 61 63 64
66 68 69 71 71 68 68 69 71 68 63 55 48 42 37 32 29 24 19 18 22 26 27 28 31 36 41 43 45 47 50 53 57 63 59 52 49 53 59 62 67 68 73
75 76 78 77 74 71 64 55 47 40 33 34 32 28 24 19 14 13 14 16 18 18 27 33 40 46 50 53 56 57 60 63 66 66 63 58 57 59 63 64 73 76 82
57 56 54 52 48 45 45 45 39 33 31 28 24 21 19 17 12 11 12 13 15 21 31 37 43 46 54 58 60 62 63 64 66 66 63 62 65 68 68 72 76 82 88
30 33 34 33 34 34 33 30 31 29 25 22 19 15 13 14 15 15 16 19 24 30 36 40 45 49 52 54 58 61 62 61 59 58 58 61 64 70 74 78 83 84 89
23 24 23 23 22 22 20 18 17 15 13 13 14 15 16 16 18 21 25 30 33 36 39 42 43 43 45 46 46 46 51 54 58 60 64 68 70 70 74 81 83 85 86
15 17 19 19 18 15 14 13 12 11 12 15 17 18 19 21 23 25 29 31 33 35 37 41 41 42 41 40 44 47 49 54 58 63 69 74 79 79 80 82 84 85 82
10 10 11 12 14 14 14 13 14 16 17 15 13 16 19 20 21 24 26 30 32 35 38 41 38 37 37 44 50 52 57 61 66 68 70 74 78 77 80 79 80 80 80
11 12 12 12 13 14 14 14 15 15 14 14 17 20 21 19 22 25 29 33 37 39 38 36 38 41 43 46 50 54 59 64 68 72 75 78 78 76 73 68 68 70 69
12 12 12 13 12 11 10 11 11 12 13 15 16 19 23 25 27 28 29 29 27 28 30 31 34 38 42 47 54 60 64 66 66 68 69 67 64 61 60 60 59 59 57
10 10 10 10 10 9 8 8 9 11 13 15 17 19 20 19 17 17 17 20 24 27 30 33 34 37 43 50 54 58 59 59 59 59 60 59 56 54 52 51 49 48 48
8 7 7 6 6 6 7 8 10 12 12 11 10 8 7 9 12 15 17 20 25 30 33 36 42 46 49 50 52 53 55 55 55 54 53 52 51 48 46 44 42 43 44
9 8 8 8 8 9 9 9 7 5 2 1 5 8 9 11 13 17 22 26 29 32 36 41 45 48 51 52 52 52 51 51 50 47 48 47 46 43 42 41 40 41 43
13 13 13 12 10 9 7 5 5 4 4 4 6 8 12 17 20 23 25 28 31 35 39 43 46 48 49 49 50 50 49 48 46 42 42 42 42 42 41 40 39 40 40
Wind_Direction_500mb
268 257 244 236 232 223 223 219 216 216 207 209 206 202 200 202 202 205 206 202 201 198 196 202 206 200 202 227 247 232 234 230 231 238 252 264 279 290 299 302 306 307 306
279 251 237 234 230 220 220 215 216 218 219 210 209 201 198 202 200 200 201 200 199 197 202 207 199 204 235 223 242 225 224 228 236 247 263 278 287 295 298 304 304 301 301
270 247 235 224 218 206 206 208 213 212 214 212 204 198 198 198 196 199 201 198 195 205 206 205 211 216 216 240 219 217 221 232 248 267 278 288 292 298 299 300 300 300 303
274 225 206 206 196 194 200 209 207 209 212 208 198 197 196 194 193 190 192 198 199 200 204 206 200 220 217 209 214 215 226 242 263 278 290 296 301 301 297 300 298 301 302
201 178 181 180 185 191 199 199 200 204 206 204 194 189 189 189 188 189 192 194 195 197 188 196 203 193 208 209 212 223 238 254 270 288 293 298 298 297 298 296 297 302 301
177 176 173 177 185 192 190 192 201 196 205 198 190 189 184 186 185 186 185 195 197 187 187 188 193 199 205 209 217 231 250 265 282 289 294 292 298 295 293 294 294 297 301
162 171 173 176 180 184 185 185 184 200 197 191 186 181 179 178 179 179 193 188 178 186 191 186 193 199 206 215 225 239 256 272 283 290 293 295 294 300 292 293 293 292 293
159 164 172 174 178 175 172 176 179 186 186 182 177 174 170 172 173 175 174 176 183 184 179 192 198 203 209 219 233 248 264 275 291 291 299 298 295 293 291 290 287 288 290
166 158 167 170 166 168 170 172 175 175 171 168 169 169 163 162 167 166 176 180 173 180 190 196 202 207 214 226 239 253 265 279 282 289 294 296 294 295 289 289 292 290 292
142 155 154 159 156 156 161 162 164 168 162 160 160 160 161 156 164 174 170 169 181 189 193 201 208 212 223 235 246 254 266 280 278 288 291 293 297 298 292 295 292 290 293
131 137 144 148 150 152 153 154 155 155 153 152 152 152 154 159 156 160 171 183 190 195 203 210 214 220 230 239 248 255 269 276 285 287 287 289 296 302 303 303 297 292 290
127 131 136 140 142 145 146 148 147 144 142 144 146 146 147 153 163 171 179 186 197 203 206 213 222 230 236 243 252 262 272 280 285 288 286 295 298 304 307 301 296 292 289
118 120 124 129 135 137 136 136 134 137 141 143 145 150 156 165 169 176 185 196 203 214 220 225 231 238 244 249 257 265 272 282 285 284 287 295 301 305 303 301 298 291 288
107 111 117 120 122 124 128 131 130 134 139 145 151 154 157 166 174 183 190 202 215 224 233 241 247 250 254 260 264 273 280 284 284 283 287 293 296 299 301 301 297 292 288
99 104 106 110 114 117 120 122 124 128 131 136 140 144 149 154 156 179 209 226 238 246 252 258 260 263 267 271 276 281 284 286 285 288 288 291 292 295 299 300 297 291 284
102 106 109 112 115 120 125 131 135 139 139 144 148 152 158 168 182 204 229 247 259 267 273 275 277 279 278 281 284 284 283 285 288 289 286 289 292 294 297 299 296 290 285
95 106 112 116 120 126 131 133 135 141 150 159 165 176 190 208 224 240 258 270 273 275 282 287 285 283 283 284 284 285 286 285 287 289 292 292 294 295 296 299 298 294 290
111 112 111 114 118 123 130 141 148 156 167 185 205 221 234 249 261 267 271 274 278 285 289 288 285 286 286 290 294 300 306 309 308 303 300 301 301 303 303 302 300 297 295
122 132 138 139 141 146 152 161 176 193 209 224 232 239 246 254 259 265 270 275 279 285 285 285 289 294 302 305 305 308 306 305 304 305 305 305 305 308 306 304 302 298 295
146 147 160 169 178 188 197 205 219 229 234 241 256 263 265 270 274 275 278 280 280 280 279 282 289 288 287 292 294 294 293 292 295 296 296 297 300 300 298 299 297 295 294
188 188 189 190 194 202 211 222 233 246 254 261 264 268 274 279 279 276 271 270 275 278 281 287 291 297 303 305 306 306 305 305 304 302 302 300 298 296 295 294 294 293 292
193 201 206 213 221 225 234 244 250 255 258 261 268 275 277 276 275 275 279 288 296 300 303 304 307 309 310 312 314 312 310 309 308 306 305 303 301 298 296 296 296 294 293
191 200 206 213 220 227 238 248 258 260 262 265 269 270 271 277 288 300 309 311 311 313 315 316 317 320 321 319 317 316 316 316 314 313 311 309 308 305 301 299 300 298 296
207 208 210 214 225 232 238 244 248 252 258 262 263 272 300 323 327 327 325 328 331 329 329 331 330 328 325 324 324 323 322 320 320 319 316 313 311 308 305 304 304 302 299
187 189 190 193 196 202 213 217 218 214 219 337 354 353 349 348 348 346 344 341 336 334 332 332 331 332 331 330 329 329 329 329 328 325 321 317 315 313 311 309 306 302 301
167 170 169 165 161 152 135 108 87 73 59 42 31 19 8 1 355 349 341 338 337 337 338 338 336 336 337 337 336 336 336 333 329 328 323 321 319 318 316 314 311 307 305
Wind_Speed_850mb
78 87 94 93 88 86 88 100 117 112 127 129 127 124 119 112 103 93 88 83 74 71 70 67 59 58 53 41 47 39 31 29 23 23 24 26 30 32 36 41 44 45 40
78 75 83 89 95 90 91 106 122 122 127 128 131 130 122 114 104 92 90 80 77 83 79 62 66 56 45 43 34 32 32 25 25 24 25 27 30 33 39 43 44 45 42
61 80 91 90 81 83 102 109 119 121 129 127 132 135 120 113 103 96 93 87 84 78 64 67 59 49 45 37 40 35 28 27 25 24 27 28 33 36 41 43 44 44 45
35 53 84 81 80 107 106 102 111 112 110 116 128 125 119 113 103 98 92 82 79 69 51 46 48 41 32 37 35 28 27 24 23 26 30 35 39 40 44 46 47 46 50
21 42 60 81 97 97 98 106 102 98 110 116 128 124 120 113 105 96 85 81 69 52 50 50 43 35 38 34 29 27 24 23 25 28 35 39 42 44 47 49 51 51 55
49 59 77 87 92 87 98 94 85 89 91 111 118 119 111 103 92 81 78 69 53 56 56 46 40 42 37 32 28 24 25 25 26 31 37 42 43 45 47 50 54 56 63
55 76 83 81 83 87 84 83 86 61 97 111 110 107 98 85 76 69 58 56 55 51 40 44 42 37 34 30 25 25 26 26 27 32 38 41 45 44 50 53 54 56 60
50 67 75 77 85 86 85 80 84 90 103 106 101 93 83 75 66 61 58 51 48 42 40 36 35 34 31 26 26 26 24 26 27 34 39 43 48 47 51 52 53 56 58
39 53 63 69 76 81 81 79 78 89 92 96 92 82 75 69 66 63 52 48 50 40 37 37 35 32 27 27 27 24 26 23 27 33 40 45 52 50 48 49 50 52 59
38 42 52 64 73 74 76 77 77 82 85 78 77 74 64 71 60 48 50 43 38 38 35 34 34 29 29 28 27 25 26 22 30 34 40 44 46 44 47 46 45 51 53
41 48 54 62 64 66 65 64 82 87 84 79 73 66 58 53 54 46 37 34 32 31 32 33 29 30 30 30 29 27 26 30 33 40 40 41 40 43 47 49 50 53 56
43 52 55 55 56 61 70 77 78 81 77 73 64 59 56 49 38 36 33 31 32 32 29 29 31 31 31 31 32 31 33 37 42 47 46 43 43 44 48 53 59 60 58
53 55 56 59 66 71 76 75 75 70 69 68 65 59 49 42 36 32 30 29 25 23 25 28 31 32 33 37 36 39 41 45 51 53 52 49 44 45 53 59 61 63 64
66 68 69 71 71 68 68 69 71 68 63 55 48 42 37 32 29 24 19 18 22 26 27 28 31 36 41 43 45 47 50 53 57 63 59 52 49 53 59 62 67 68 73
75 76 78 77 74 71 64 55 47 40 33 34 32 28 24 19 14 13 14 16 18 18 27 33 40 46 50 53 56 57 60 63 66 66 63 58 57 59 63 64 73 76 82
57 56 54 52 48 45 45 45 39 33 31 28 24 21 19 17 12 11 12 13 15 21 31 37 43 46 54 58 60 62 63 64 66 66 63 62 65 68 68 72 76 82 88
30 33 34 33 34 34 33 30 31 29 25 22 19 15 13 14 15 15 16 19 24 30 36 40 45 49 52 54 58 61 62 61 59 58 58 61 64 70 74 78 83 84 89
23 24 23 23 22 22 20 18 17 15 13 13 14 15 16 16 18 21 25 30 33 36 39 42 43 43 45 46 46 46 51 54 58 60 64 68 70 70 74 81 83 85 86
15 17 19 19 18 15 14 13 12 11 12 15 17 18 19 21 23 25 29 31 33 35 37 41 41 42 41 40 44 47 49 54 58 63 69 74 79 79 80 82 84 85 82
10 10 11 12 14 14 14 13 14 16 17 15 13 16 19 20 21 24 26 30 32 35 38 41 38 37 37 44 50 52 57 61 66 68 70 74 78 77 80 79 80 80 80
11 12 12 12 13 14 14 14 15 15 14 14 17 20 21 19 22 25 29 33 37 39 38 36 38 41 43 46 50 54 59 64 68 72 75 78 78 76 73 68 68 70 69
12 12 12 13 12 11 10 11 11 12 13 15 16 19 23 25 27 28 29 29 27 28 30 31 34 38 42 47 54 60 64 66 66 68 69 67 64 61 60 60 59 59 57
10 10 10 10 10 9 8 8 9 11 13 15 17 19 20 19 17 17 17 20 24 27 30 33 34 37 43 50 54 58 59 59 59 59 60 59 56 54 52 51 49 48 48
8 7 7 6 6 6 7 8 10 12 12 11 10 8 7 9 12 15 17 20 25 30 33 36 42 46 49 50 52 53 55 55 55 54 53 52 51 48 46 44 42 43 44
9 8 8 8 8 9 9 9 7 5 2 1 5 8 9 11 13 17 22 26 29 32 36 41 45 48 51 52 52 52 51 51 50 47 48 47 46 43 42 41 40 41 43
13 13 13 12 10 9 7 5 5 4 4 4 6 8 12 17 20 23 25 28 31 35 39 43 46 48 49 49 50 50 49 48 46 42 42 42 42 42 41 40 39 40 40
Wind_Direction_850mb
268 257 244 236 232 223 223 219 216 216 207 209 206 202 200 202 202 205 206 202 201 198 196 202 206 200 202 227 247 232 234 230 231 238 252 264 279 290 299 302 306 307 306
279 251 237 234 230 220 220 215 216 218 219 210 209 201 198 202 200 200 201 200 199 197 202 207 199 204 235 223 242 225 224 228 236 247 263 278 287 295 298 304 304 301 301
270 247 235 224 218 206 206 208 213 212 214 212 204 198 198 198 196 199 201 198 195 205 206 205 211 216 216 240 219 217 221 232 248 267 278 288 292 298 299 300 300 300 303
274 225 206 206 196 194 200 209 207 209 212 208 198 197 196 194 193 190 192 198 199 200 204 206 200 220 217 209 214 215 226 242 263 278 290 296 301 301 297 300 298 301 302
201 178 181 180 185 191 199 199 200 204 206 204 194 189 189 189 188 189 192 194 195 197 188 196 203 193 208 209 212 223 238 254 270 288 293 298 298 297 298 296 297 302 301
177 176 173 177 185 192 190 192 201 196 205 198 190 189 184 186 185 186 185 195 197 187 187 188 193 199 205 209 217 231 250 265 282 289 294 292 298 295 293 294 294 297 301
162 171 173 176 180 184 185 185 184 200 197 191 186 181 179 178 179 179 193 188 178 186 191 186 193 199 206 215 225 239 256 272 283 290 293 295 294 300 292 293 293 292 293
159 164 172 174 178 175 172 176 179 186 186 182 177 174 170 172 173 175 174 176 183 184 179 192 198 203 209 219 233 248 264 275 291 291 299 298 295 293 291 290 287 288 290
166 158 167 170 166 168 170 172 175 175 171 168 169 169 163 162 167 166 176 180 173 180 190 196 202 207 214 226 239 253 265 279 282 289 294 296 294 295 289 289 292 290 292
142 155 154 159 156 156 161 162 164 168 162 160 160 160 161 156 164 174 170 169 181 189 193 201 208 212 223 235 246 254 266 280 278 288 291 293 297 298 292 295 292 290 293
131 137 144 148 150 152 153 154 155 155 153 152 152 152 154 159 156 160 171 183 190 195 203 210 214 220 230 239 248 255 269 276 285 287 287 289 296 302 303 303 297 292 290
127 131 136 140 142 145 146 148 147 144 142 144 146 146 147 153 163 171 179 186 197 203 206 213 222 230 236 243 252 262 272 280 285 288 286 295 298 304 307 301 296 292 289
118 120 124 129 135 137 136 136 134 137 141 143 145 150 156 165 169 176 185 196 203 214 220 225 231 238 244 249 257 265 272 282 285 284 287 295 301 305 303 301 298 291 288
107 111 117 120 122 124 128 131 130 134 139 145 151 154 157 166 174 183 190 202 215 224 233 241 247 250 254 260 264 273 280 284 284 283 287 293 296 299 301 301 297 292 288
99 104 106 110 114 117 120 122 124 128 131 136 140 144 149 154 156 179 209 226 238 246 252 258 260 263 267 271 276 281 284 286 285 288 288 291 292 295 299 300 297 291 284
102 106 109 112 115 120 125 131 135 139 139 144 148 152 158 168 182 204 229 247 259 267 273 275 277 279 278 281 284 284 283 285 288 289 286 289 292 294 297 299 296 290 285
95 106 112 116 120 126 131 133 135 141 150 159 165 176 190 208 224 240 258 270 273 275 282 287 285 283 283 284 284 285 286 285 287 289 292 292 294 295 296 299 298 294 290
111 112 111 114 118 123 130 141 148 156 167 185 205 221 234 249 261 267 271 274 278 285 289 288 285 286 286 290 294 300 306 309 308 303 300 301 301 303 303 302 300 297 295
122 132 138 139 141 146 152 161 176 193 209 224 232 239 246 254 259 265 270 275 279 285 285 285 289 294 302 305 305 308 306 305 304 305 305 305 305 308 306 304 302 298 295
146 147 160 169 178 188 197 205 219 229 234 241 256 263 265 270 274 275 278 280 280 280 279 282 289 288 287 292 294 294 293 292 295 296 296 297 300 300 298 299 297 295 294
188 188 189 190 194 202 211 222 233 246 254 261 264 268 274 279 279 276 271 270 275 278 281 287 291 297 303 305 306 306 305 305 304 302 302 300 298 296 295 294 294 293 292
193 201 206 213 221 225 234 244 250 255 258 261 268 275 277 276 275 275 279 288 296 300 303 304 307 309 310 312 314 312 310 309 308 306 305 303 301 298 296 296 296 294 293
191 200 206 213 220 227 238 248 258 260 262 265 269 270 271 277 288 300 309 311 311 313 315 316 317 320 321 319 317 316 316 316 314 313 311 309 308 305 301 299 300 298 296
207 208 210 214 225 232 238 244 248 252 258 262 263 272 300 323 327 327 325 328 331 329 329 331 330 328 325 324 324 323 322 320 320 319 316 313 311 308 305 304 304 302 299
187 189 190 193 196 202 213 217 218 214 219 337 354 353 349 348 348 346 344 341 336 334 332 332 331 332 331 330 329 329 329 329 328 325 321 317 315 313 311 309 306 302 301
167 170 169 165 161 152 135 108 87 73 59 42 31 19 8 1 355 349 341 338 337 337 338 338 336 336 337 337 336 336 336 333 329 328 323 321 319 318 316 314 311 307 305